Weather History for Okinawa, Japan

Change the Weather History Date:

Saturday, September 29, 2012

  Actual Average Record
Temperature  
Mean Temperature 77 °F -  
Max Temperature 79 °F 80 °F 91 °F (1999)
Min Temperature 75 °F 69 °F 68 °F (1997)
Cooling Degree Days 12    
Growing Degree Days 27 (Base 50)    
Moisture  
Dew Point 77 °F    
Average Humidity 98    
Maximum Humidity 100    
Minimum Humidity 74    
Precipitation  
Precipitation 27.11 in - - ()
Sea Level Pressure  
Sea Level Pressure 29.14 in    
Wind  
Wind Speed 37 mph ()    
Max Wind Speed 85 mph    
Max Gust Speed 115 mph    
Visibility 3.2 miles    
Events Fog , Rain    
Averages and records for this station are not official NWS values.
T = Trace of Precipitation, MM = Missing Value Source: Averaged Metar Reports

Daily Weather History Graph

Daily Weather History Graph

Search for Another Location

Airport:

Trip Planner

Search our weather history database for the weather conditions in past years. The results will help you decide how hot, cold, wet, or windy it might be!

Date:

Astronomy

Sep. 29, 2012 Rise Set
Actual Time 6:20 AM JST 6:17 PM JST
Civil Twilight 5:57 AM JST 6:40 PM JST
Nautical Twilight 5:30 AM JST 7:07 PM JST
Astronomical Twilight 5:03 AM JST 7:34 PM JST
Moon 5:32 PM JST (9/29) 5:17 AM JST (9/29)
Length of Visible Light 12h 43m
Length of Day
11h 57m
Waxing Gibbous, 99% of the Moon is Illuminated
Sep 29
Waxing Gibbous
Sep 30
Full
Oct 8
Last Quarter
Oct 15
New
Oct 22
First Quarter

Hourly Weather History & Observations

Time (JST) Temp. Dew Point Humidity Pressure Visibility Wind Dir Wind Speed Gust Speed Precip Events Conditions
12:42 AM 78.8 °F 77.0 °F 94% 29.60 in 10.0 mi East 20.7 mph - N/A Rain Light Rain
12:55 AM 78.4 °F 78.3 °F 99% 29.60 in 10.0 mi East 23.0 mph 28.8 mph 0.00 in Rain Light Rain
12:58 AM 78.8 °F 78.8 °F 100% 29.59 in 10.0 mi East 20.7 mph 28.8 mph N/A   Partly Cloudy
1:06 AM 78.8 °F 78.8 °F 100% 29.60 in 10.0 mi East 16.1 mph 26.5 mph N/A   Mostly Cloudy
1:10 AM 78.8 °F 78.8 °F 100% 29.61 in 10.0 mi East 17.3 mph 26.5 mph N/A Rain Light Rain
1:30 AM 78.8 °F 78.8 °F 100% 29.60 in 2.5 mi East 29.9 mph 39.1 mph N/A Rain Light Rain
1:34 AM 78.8 °F 78.8 °F 100% 29.60 in 2.0 mi East 21.9 mph 39.1 mph N/A Rain Heavy Rain
1:35 AM 78.8 °F 78.8 °F 100% 29.60 in 2.0 mi East 20.7 mph 39.1 mph N/A Rain Heavy Rain
1:36 AM 78.8 °F 77.0 °F 94% 29.60 in 2.0 mi East 20.7 mph 39.1 mph N/A Rain Light Rain
1:37 AM 78.8 °F 77.0 °F 94% 29.60 in 2.0 mi East 20.7 mph 39.1 mph N/A Rain Light Rain
1:39 AM 77.0 °F 77.0 °F 100% 29.59 in 3.0 mi East 25.3 mph 39.1 mph N/A Rain Light Rain
1:42 AM 77.0 °F 77.0 °F 100% 29.59 in 6.0 mi East 20.7 mph 29.9 mph N/A Rain Light Rain
1:52 AM 77.0 °F 75.2 °F 94% 29.57 in 4.0 mi East 23.0 mph 32.2 mph N/A Rain Light Rain
1:55 AM 76.3 °F 75.9 °F 99% 29.56 in 4.0 mi East 23.0 mph 31.1 mph 0.22 in Rain Heavy Rain
1:58 AM 77.0 °F 75.2 °F 94% 29.56 in 4.0 mi East 21.9 mph 31.1 mph N/A Rain Light Rain
2:03 AM 77.0 °F 75.2 °F 94% 29.56 in 6.0 mi East 23.0 mph 31.1 mph N/A Rain Light Rain
2:04 AM 77.0 °F 75.2 °F 94% 29.56 in 8.0 mi East 21.9 mph 31.1 mph N/A Rain Light Rain
2:07 AM 75.2 °F 75.2 °F 100% 29.56 in 10.0 mi East 21.9 mph 28.8 mph N/A   Scattered Clouds
2:12 AM 75.2 °F 75.2 °F 100% 29.56 in 10.0 mi East 24.2 mph 29.9 mph N/A Rain Light Rain
2:21 AM 77.0 °F 75.2 °F 94% 29.56 in 10.0 mi East 20.7 mph 27.6 mph N/A Rain Light Rain
2:24 AM 77.0 °F 75.2 °F 94% 29.56 in 10.0 mi East 23.0 mph 27.6 mph N/A Rain Light Rain
2:30 AM 77.0 °F 77.0 °F 100% 29.55 in 10.0 mi East 21.9 mph 28.8 mph N/A Rain Light Rain
2:49 AM 77.0 °F 77.0 °F 100% 29.53 in 6.0 mi East 19.6 mph 27.6 mph N/A Rain Light Rain
2:50 AM 77.0 °F 77.0 °F 100% 29.52 in 6.0 mi East 21.9 mph 27.6 mph N/A Rain Light Rain
2:54 AM 77.0 °F 77.0 °F 100% 29.52 in 7.0 mi East 20.7 mph 27.6 mph N/A Rain Light Rain
2:55 AM 77.2 °F 77.2 °F 100% 29.51 in 7.0 mi East 21.9 mph 28.8 mph 0.05 in Rain Light Rain
3:32 AM 78.8 °F 78.8 °F 100% 29.44 in 7.0 mi East 28.8 mph 36.8 mph N/A Rain Light Rain
3:41 AM 78.8 °F 78.8 °F 100% 29.43 in 8.0 mi East 25.3 mph 40.3 mph N/A Rain Light Rain
3:52 AM 78.8 °F 78.8 °F 100% 29.43 in 6.0 mi East 32.2 mph 50.6 mph N/A Rain Light Rain
3:53 AM 78.8 °F 78.8 °F 100% 29.43 in 6.0 mi East 32.2 mph 50.6 mph N/A Rain Light Rain
3:55 AM 79.0 °F 78.6 °F 99% 29.42 in 6.0 mi East 29.9 mph 50.6 mph 0.09 in Rain Light Rain
3:57 AM 78.8 °F 78.8 °F 100% 29.42 in 6.0 mi East 27.6 mph 50.6 mph N/A Rain Light Rain
4:07 AM 78.8 °F 78.8 °F 100% 29.40 in 6.0 mi East 29.9 mph 39.1 mph N/A Rain Light Rain
4:12 AM 78.8 °F 78.8 °F 100% 29.39 in 6.0 mi East 32.2 mph 39.1 mph N/A Rain Light Rain
4:30 AM 78.8 °F 78.8 °F 100% 29.37 in 5.0 mi East 35.7 mph 50.6 mph N/A Rain Rain
4:36 AM 78.8 °F 78.8 °F 100% 29.36 in 5.0 mi East 35.7 mph 50.6 mph N/A Rain Rain
4:43 AM 78.8 °F 78.8 °F 100% 29.35 in 5.0 mi East 35.7 mph 47.2 mph N/A Rain Rain
4:46 AM 78.8 °F 78.8 °F 100% 29.34 in 4.0 mi East 38.0 mph 50.6 mph N/A Rain Rain
4:55 AM 78.6 °F 78.3 °F 99% 29.33 in 4.0 mi East 39.1 mph 50.6 mph 0.16 in Rain Rain
5:01 AM 78.8 °F 78.8 °F 100% 29.31 in 5.0 mi East 33.4 mph 50.6 mph N/A Rain Rain
5:14 AM 78.8 °F 78.8 °F 100% 29.28 in 3.0 mi East 40.3 mph 51.8 mph N/A Rain Rain
5:27 AM 78.8 °F 78.8 °F 100% 29.26 in 2.5 mi East 43.7 mph 56.4 mph N/A Rain Rain
5:29 AM 78.8 °F 78.8 °F 100% 29.25 in 1.8 mi East 40.3 mph 56.4 mph N/A Rain Rain
5:30 AM 78.8 °F 78.8 °F 100% 29.25 in 1.8 mi East 36.8 mph 56.4 mph N/A Rain Heavy Rain
5:32 AM 78.8 °F 78.8 °F 100% 29.24 in 1.8 mi East 40.3 mph 51.8 mph N/A Rain Rain
5:33 AM 78.8 °F 78.8 °F 100% 29.24 in 1.8 mi East 42.6 mph 52.9 mph N/A Rain Light Rain
5:35 AM 78.8 °F 77.0 °F 94% 29.23 in 2.0 mi East 44.9 mph 52.9 mph N/A Rain Light Rain
5:36 AM 78.8 °F 77.0 °F 94% 29.23 in 2.0 mi East 42.6 mph 52.9 mph N/A Rain Light Rain
5:38 AM 78.8 °F 77.0 °F 94% 29.22 in 3.0 mi East 42.6 mph 54.1 mph N/A Rain Light Rain
5:45 AM 78.8 °F 78.8 °F 100% 29.21 in 3.0 mi East 39.1 mph 61.0 mph N/A Rain Rain
5:47 AM 78.8 °F 77.0 °F 94% 29.19 in 3.0 mi East 39.1 mph 61.0 mph N/A Rain Rain
5:48 AM 78.8 °F 77.0 °F 94% 29.20 in 2.5 mi East 42.6 mph 61.0 mph N/A Rain Rain
5:49 AM 78.8 °F 77.0 °F 94% 29.19 in 2.5 mi East 46.0 mph 61.0 mph N/A Rain Rain
5:52 AM 78.8 °F 77.0 °F 94% 29.19 in 2.0 mi East 46.0 mph 57.5 mph N/A Rain Rain
5:53 AM 78.8 °F 77.0 °F 94% 29.19 in 1.8 mi East 44.9 mph 63.3 mph N/A Rain Rain
5:55 AM 77.9 °F 77.7 °F 99% 29.18 in 1.5 mi East 47.2 mph 65.6 mph 0.35 in Rain Rain
5:57 AM 78.8 °F 77.0 °F 94% 29.19 in 1.5 mi East 51.8 mph 65.6 mph N/A Rain Heavy Rain
6:00 AM 78.8 °F 77.0 °F 94% 29.20 in 1.2 mi East 49.5 mph 67.9 mph N/A Rain Rain
6:02 AM 78.8 °F 78.8 °F 100% 29.20 in 1.5 mi ESE 48.3 mph 67.9 mph N/A Rain Rain
6:03 AM 78.8 °F 78.8 °F 100% 29.20 in 1.8 mi ESE 42.6 mph 67.9 mph N/A Rain Rain
6:05 AM 78.8 °F 78.8 °F 100% 29.20 in 1.5 mi East 44.9 mph 67.9 mph N/A Rain Rain
6:07 AM 78.8 °F 78.8 °F 100% 29.20 in 1.2 mi East 43.7 mph 67.9 mph N/A Rain Rain
6:08 AM 78.8 °F 78.8 °F 100% 29.20 in 1.2 mi East 39.1 mph 67.9 mph N/A Rain Heavy Rain
6:10 AM 78.8 °F 78.8 °F 100% 29.20 in 1.0 mi ESE 36.8 mph 67.9 mph N/A Rain Heavy Rain
6:18 AM 77.0 °F 77.0 °F 100% 29.17 in 1.2 mi East 43.7 mph 63.3 mph N/A Rain Heavy Rain
6:21 AM 77.0 °F 77.0 °F 100% 29.15 in 1.5 mi East 48.3 mph 63.3 mph N/A Rain Heavy Rain
6:23 AM 77.0 °F 77.0 °F 100% 29.14 in 1.8 mi East 47.2 mph 65.6 mph N/A Rain Light Rain
6:24 AM 77.0 °F 77.0 °F 100% 29.14 in 1.8 mi East 42.6 mph 65.6 mph N/A Rain Light Rain
6:25 AM 77.0 °F 77.0 °F 100% 29.14 in 2.0 mi East 41.4 mph 65.6 mph N/A Rain Light Rain
6:33 AM 77.0 °F 77.0 °F 100% 29.11 in 2.0 mi East 55.2 mph 73.6 mph N/A Rain Light Rain
6:34 AM 77.0 °F 77.0 °F 100% 29.11 in 1.8 mi East 52.9 mph 73.6 mph N/A Rain Light Rain
6:35 AM 77.0 °F 77.0 °F 100% 29.10 in 1.5 mi East 55.2 mph 73.6 mph N/A Rain Light Rain
6:36 AM 77.0 °F 77.0 °F 100% 29.10 in 1.2 mi East 57.5 mph 73.6 mph N/A Rain Light Rain
6:37 AM 77.0 °F 77.0 °F 100% 29.10 in 1.2 mi East 54.1 mph 73.6 mph N/A Rain Light Rain
6:39 AM 78.8 °F 77.0 °F 94% 29.10 in 1.0 mi East 52.9 mph 73.6 mph N/A Rain Rain
6:41 AM 78.8 °F 77.0 °F 94% 29.10 in 0.8 mi ESE 49.5 mph 73.6 mph N/A Rain Rain
6:42 AM 77.0 °F 77.0 °F 100% 29.09 in 0.5 mi East 49.5 mph 73.6 mph N/A Fog , Rain Rain
6:47 AM 77.0 °F 77.0 °F 100% 29.09 in 0.5 mi East 42.6 mph 73.6 mph N/A Fog , Rain Light Rain
6:50 AM 77.0 °F 77.0 °F 100% 29.08 in 0.8 mi East 47.2 mph 71.3 mph N/A Rain Rain
6:53 AM 77.0 °F 77.0 °F 100% 29.07 in 0.8 mi East 42.6 mph 71.3 mph N/A Rain Rain
6:54 AM 77.0 °F 77.0 °F 100% 29.07 in 1.0 mi East 42.6 mph 71.3 mph N/A Rain Rain
6:55 AM 77.7 °F 77.7 °F 100% 29.06 in 1.0 mi East 49.5 mph 71.3 mph 0.62 in Rain Rain
6:56 AM 77.0 °F 77.0 °F 100% 29.06 in 0.8 mi East 48.3 mph 71.3 mph N/A Rain Rain
6:57 AM 77.0 °F 77.0 °F 100% 29.05 in 0.8 mi East 48.3 mph 71.3 mph N/A Rain Rain
7:01 AM 77.0 °F 77.0 °F 100% 29.03 in 0.8 mi East 52.9 mph 71.3 mph N/A Rain Rain
7:02 AM 77.0 °F 77.0 °F 100% 29.03 in 0.8 mi East 51.8 mph 69.0 mph N/A Rain Rain
7:03 AM 77.0 °F 77.0 °F 100% 29.03 in 0.8 mi East 48.3 mph 69.0 mph N/A Rain Rain
7:04 AM 77.0 °F 77.0 °F 100% 29.03 in 1.0 mi ESE 43.7 mph 69.0 mph N/A Rain Rain
7:08 AM 77.0 °F 77.0 °F 100% 29.02 in 1.2 mi East 49.5 mph 69.0 mph N/A Rain Light Rain
7:12 AM 77.0 °F 77.0 °F 100% 29.00 in 1.0 mi East 51.8 mph 72.5 mph N/A Rain Light Rain
7:15 AM 77.0 °F 77.0 °F 100% 28.99 in 0.8 mi East 55.2 mph 72.5 mph N/A Rain Heavy Rain
7:16 AM 77.0 °F 77.0 °F 100% 28.99 in 0.8 mi East 54.1 mph 72.5 mph N/A Rain Heavy Rain
7:18 AM 77.0 °F 77.0 °F 100% 28.98 in 0.8 mi East 49.5 mph 72.5 mph N/A Rain Heavy Rain
7:19 AM 77.0 °F 77.0 °F 100% 28.99 in 0.8 mi East 48.3 mph 72.5 mph N/A Rain Rain
7:22 AM 77.0 °F 77.0 °F 100% 28.99 in 0.8 mi ESE 49.5 mph 72.5 mph N/A Rain Rain
7:24 AM 77.0 °F 77.0 °F 100% 28.99 in 1.0 mi ESE 46.0 mph 72.5 mph N/A Rain Light Rain
7:28 AM 77.0 °F 77.0 °F 100% 28.97 in 0.8 mi ESE 48.3 mph 74.8 mph N/A Rain Light Rain
7:32 AM 77.0 °F 77.0 °F 100% 28.96 in 0.8 mi ESE 44.9 mph 74.8 mph N/A Rain Rain
7:33 AM 77.0 °F 77.0 °F 100% 28.95 in 0.8 mi ESE 46.0 mph 74.8 mph N/A Rain Rain
7:34 AM 77.0 °F 77.0 °F 100% 28.95 in 0.8 mi ESE 52.9 mph 74.8 mph N/A Rain Rain
7:37 AM 77.0 °F 77.0 °F 100% 28.94 in 0.8 mi East 54.1 mph 71.3 mph N/A Rain Rain
7:40 AM 77.0 °F 77.0 °F 100% 28.93 in 0.8 mi ESE 50.6 mph 71.3 mph N/A Rain Rain
7:41 AM 77.0 °F 77.0 °F 100% 28.93 in 0.8 mi East 47.2 mph 71.3 mph N/A Rain Rain
7:51 AM 77.0 °F 77.0 °F 100% 28.89 in 0.5 mi ESE 51.8 mph 79.4 mph N/A Fog , Rain Heavy Rain
7:52 AM 77.0 °F 77.0 °F 100% 28.88 in 0.5 mi ESE 50.6 mph 79.4 mph N/A Fog , Rain Heavy Rain
7:55 AM 77.5 °F 77.5 °F 100% 28.86 in 0.5 mi East 61.0 mph 90.9 mph 0.49 in Fog , Rain Rain
7:56 AM 77.0 °F 77.0 °F 100% 28.86 in 0.5 mi ESE 50.6 mph 90.9 mph N/A Fog , Rain Rain
7:58 AM 77.0 °F 77.0 °F 100% 28.85 in 0.8 mi ESE 52.9 mph 90.9 mph N/A Rain Rain
8:04 AM 77.0 °F 77.0 °F 100% 28.84 in 0.5 mi ESE 55.2 mph 90.9 mph N/A Fog , Rain Rain
8:07 AM 77.0 °F 77.0 °F 100% 28.81 in 0.5 mi ESE 56.4 mph 88.6 mph N/A Fog , Rain Heavy Rain
8:11 AM 77.0 °F 77.0 °F 100% 28.79 in 0.2 mi ESE 58.7 mph 88.6 mph N/A Fog , Rain Heavy Rain
8:12 AM 77.0 °F 77.0 °F 100% 28.79 in 0.2 mi ESE 58.7 mph 88.6 mph N/A Fog , Rain Heavy Rain
8:18 AM 77.0 °F 77.0 °F 100% 28.77 in 0.2 mi ESE 55.2 mph 82.9 mph N/A Fog , Rain Heavy Rain
8:19 AM 77.0 °F 77.0 °F 100% 28.77 in 0.2 mi ESE 55.2 mph 82.9 mph N/A Fog , Rain Heavy Rain
8:41 AM 77.0 °F 77.0 °F 100% 28.69 in 0.2 mi ESE 57.5 mph 101.3 mph N/A Fog , Rain Heavy Rain
8:42 AM 77.0 °F 77.0 °F 100% 28.69 in 0.2 mi ESE 59.8 mph 101.3 mph N/A Fog , Rain Heavy Rain
8:44 AM 77.0 °F 77.0 °F 100% 28.69 in 0.2 mi ESE 56.4 mph 101.3 mph N/A Fog , Rain Rain
8:46 AM 77.0 °F 77.0 °F 100% 28.67 in 0.5 mi ESE 58.7 mph 86.3 mph N/A Fog , Rain Light Rain
8:50 AM 77.0 °F 77.0 °F 100% 28.67 in 0.8 mi ESE 56.4 mph 82.9 mph N/A Rain Light Rain
8:54 AM 77.0 °F 77.0 °F 100% 28.64 in 0.8 mi ESE 58.7 mph 82.9 mph N/A Rain Light Rain
8:55 AM 77.2 °F 77.2 °F 100% 28.63 in 0.8 mi ESE 58.7 mph 82.9 mph 0.91 in Rain Light Rain
8:57 AM 77.0 °F 77.0 °F 100% 28.62 in 0.5 mi ESE 64.4 mph 84.0 mph N/A Fog , Rain Light Rain
9:01 AM 77.0 °F 77.0 °F 100% 28.61 in 0.5 mi ESE 57.5 mph 92.1 mph N/A Fog , Rain Heavy Rain
9:02 AM 77.0 °F 77.0 °F 100% 28.61 in 0.2 mi ESE 58.7 mph 92.1 mph N/A Fog , Rain Heavy Rain
9:03 AM 77.0 °F 77.0 °F 100% 28.60 in 0.2 mi ESE 59.8 mph 92.1 mph N/A Fog , Rain Heavy Rain
9:04 AM 77.0 °F 77.0 °F 100% 28.60 in 0.2 mi ESE 58.7 mph 92.1 mph N/A Fog , Rain Heavy Rain
9:05 AM 77.0 °F 77.0 °F 100% 28.60 in 0.2 mi ESE 61.0 mph 92.1 mph N/A Fog , Rain Heavy Rain
9:07 AM 77.0 °F 77.0 °F 100% 28.58 in 0.2 mi ESE 64.4 mph 92.1 mph N/A Fog , Rain Heavy Rain
9:16 AM 77.0 °F 77.0 °F 100% 28.55 in 0.2 mi ESE 61.0 mph 111.6 mph N/A Fog , Rain Heavy Rain
9:17 AM 77.0 °F 77.0 °F 100% 28.55 in 0.2 mi ESE 58.7 mph 111.6 mph N/A Fog , Rain Heavy Rain
9:20 AM 77.0 °F 77.0 °F 100% 28.53 in 0.5 mi ESE 61.0 mph 111.6 mph N/A Fog , Rain Rain
9:25 AM 77.0 °F 77.0 °F 100% 28.51 in 0.8 mi SE 61.0 mph 87.5 mph N/A Rain Rain
9:26 AM 77.0 °F 77.0 °F 100% 28.51 in 0.8 mi SE 59.8 mph 87.5 mph N/A Rain Rain
9:29 AM 77.0 °F 77.0 °F 100% 28.50 in 0.8 mi SE 64.4 mph 100.1 mph N/A Rain Rain
9:30 AM 77.0 °F 77.0 °F 100% 28.50 in 0.8 mi SE 56.4 mph 100.1 mph N/A Rain Rain
9:34 AM 77.0 °F 77.0 °F 100% 28.48 in 1.0 mi SE 59.8 mph 100.1 mph N/A Rain Light Rain
9:36 AM 77.0 °F 77.0 °F 100% 28.49 in 1.0 mi SE 58.7 mph 100.1 mph N/A Rain Rain
9:40 AM 77.0 °F 77.0 °F 100% 28.47 in 1.2 mi SE 58.7 mph 87.5 mph N/A Rain Light Rain
9:44 AM 77.0 °F 77.0 °F 100% 28.43 in 1.0 mi SE 61.0 mph 84.0 mph N/A Rain Light Rain
9:47 AM 77.0 °F 77.0 °F 100% 28.40 in 0.8 mi SE 65.6 mph 89.8 mph N/A Rain Light Rain
9:50 AM 77.0 °F 77.0 °F 100% 28.38 in 0.5 mi SE 66.7 mph 89.8 mph N/A Fog , Rain Rain
9:51 AM 77.0 °F 77.0 °F 100% 28.37 in 0.5 mi ESE 69.0 mph 89.8 mph N/A Fog , Rain Rain
9:52 AM 77.0 °F 77.0 °F 100% 28.37 in 0.5 mi SE 65.6 mph 89.8 mph N/A Fog , Rain Rain
9:53 AM 77.0 °F 77.0 °F 100% 28.36 in 0.5 mi SE 64.4 mph 89.8 mph N/A Fog , Rain Rain
9:55 AM 76.3 °F 76.3 °F 100% 28.35 in 0.5 mi SE 61.0 mph 89.8 mph 0.13 in Fog , Rain Rain
9:56 AM 77.0 °F 77.0 °F 100% 28.35 in 0.5 mi SE 57.5 mph 89.8 mph N/A Fog , Rain Rain
9:59 AM 77.0 °F 77.0 °F 100% 28.32 in 0.8 mi SE 56.4 mph 86.3 mph N/A Rain Rain
10:00 AM 77.0 °F 77.0 °F 100% 28.32 in 0.8 mi SE 55.2 mph 86.3 mph N/A Rain Rain
10:04 AM 77.0 °F 77.0 °F 100% 28.28 in 0.8 mi SE 64.4 mph 86.3 mph N/A Rain Rain
10:05 AM 77.0 °F 77.0 °F 100% 28.28 in 1.0 mi SE 62.1 mph 86.3 mph N/A Rain Light Rain
10:06 AM 77.0 °F 77.0 °F 100% 28.28 in 0.8 mi SE 63.3 mph 86.3 mph N/A Rain Light Rain
10:09 AM 77.0 °F 77.0 °F 100% 28.27 in 0.5 mi SE 52.9 mph 86.3 mph N/A Fog , Rain Light Rain
10:10 AM 77.0 °F 77.0 °F 100% 28.26 in 0.5 mi SE 48.3 mph 86.3 mph N/A Fog , Rain Light Rain
10:15 AM 77.0 °F 77.0 °F 100% 28.25 in 0.5 mi SE 49.5 mph 84.0 mph N/A Fog , Rain Light Rain
10:18 AM 77.0 °F 77.0 °F 100% 28.25 in 0.8 mi SE 49.5 mph 84.0 mph N/A Rain Light Rain
10:20 AM 77.0 °F 77.0 °F 100% 28.24 in 1.0 mi SE 56.4 mph 77.1 mph N/A Rain Light Rain
10:23 AM 77.0 °F 77.0 °F 100% 28.22 in 1.2 mi SE 44.9 mph 76.0 mph N/A Rain Light Rain
10:26 AM 77.0 °F 77.0 °F 100% 31.15 in 1.0 mi SE 48.3 mph 76.0 mph N/A Rain Light Rain
10:27 AM 77.0 °F 77.0 °F 100% 31.15 in 1.0 mi SE 42.6 mph 74.8 mph N/A Rain Light Rain
10:30 AM 77.0 °F 77.0 °F 100% 31.13 in 1.0 mi SE 43.7 mph 74.8 mph N/A Rain Light Rain
10:35 AM 77.0 °F 77.0 °F 100% 31.10 in 1.0 mi SE 36.8 mph 74.8 mph N/A Rain Light Rain
10:42 AM 77.0 °F 77.0 °F 100% 31.03 in 1.2 mi SE 42.6 mph 57.5 mph N/A Rain Light Rain
10:55 AM 78.1 °F 78.1 °F 100% 30.95 in 1.2 mi SE 25.3 mph 52.9 mph 0.03 in Rain Light Rain
10:57 AM 78.8 °F 78.8 °F 100% 30.94 in 1.5 mi SSE 34.5 mph 52.9 mph N/A Rain Light Rain
10:58 AM 78.8 °F 78.8 °F 100% 30.94 in 1.8 mi SSE 33.4 mph 52.9 mph N/A Rain Light Rain
10:59 AM 78.8 °F 78.8 °F 100% 30.94 in 1.8 mi SSE 33.4 mph 44.9 mph N/A Rain Light Rain
11:00 AM 78.8 °F 78.8 °F 100% 30.94 in 2.0 mi SSE 29.9 mph 46.0 mph N/A Rain Light Rain
11:06 AM 78.8 °F 78.8 °F 100% 30.92 in 2.5 mi SSE 31.1 mph 46.0 mph N/A   Overcast
11:09 AM 78.8 °F 78.8 °F 100% 30.93 in 2.0 mi South 29.9 mph 46.0 mph N/A Rain Light Rain
11:18 AM 78.8 °F 78.8 °F 100% 30.94 in 3.0 mi South 41.4 mph 49.5 mph N/A Rain Light Rain
11:31 AM 78.8 °F 78.8 °F 100% 30.96 in 3.0 mi SSW 24.2 mph 42.6 mph N/A   Overcast
11:40 AM 78.8 °F 78.8 °F 100% 30.99 in 3.0 mi WSW 36.8 mph 47.2 mph N/A Rain Light Rain
11:42 AM 78.8 °F 78.8 °F 100% 30.99 in 3.0 mi WSW 40.3 mph 47.2 mph N/A   Light Drizzle
11:45 AM 78.8 °F 78.8 °F 100% 31.00 in 4.0 mi WSW 42.6 mph 49.5 mph N/A   Light Drizzle
11:52 AM 78.8 °F 78.8 °F 100% 31.02 in 4.0 mi WSW 44.9 mph 55.2 mph N/A   Light Drizzle
11:55 AM 78.6 °F 78.6 °F 100% 31.02 in 4.0 mi WSW 46.0 mph 56.4 mph 0.01 in   Light Drizzle
12:05 PM 78.8 °F 78.8 °F 100% 31.02 in 2.5 mi WSW 48.3 mph 59.8 mph N/A Rain Light Rain
12:11 PM 78.8 °F 78.8 °F 100% 31.03 in 1.8 mi West 47.2 mph 61.0 mph N/A Rain Light Rain
12:14 PM 78.8 °F 78.8 °F 100% 31.05 in 1.8 mi West 42.6 mph 61.0 mph N/A Rain Light Rain
12:16 PM 78.8 °F 78.8 °F 100% 31.05 in 2.0 mi West 47.2 mph 61.0 mph N/A Rain Light Rain
12:28 PM 78.8 °F 78.8 °F 100% 28.20 in 3.0 mi West 39.1 mph 61.0 mph N/A Rain Light Rain
12:31 PM 78.8 °F 78.8 °F 100% 28.22 in 3.0 mi WNW 42.6 mph 55.2 mph N/A Rain Light Rain
12:33 PM 78.8 °F 78.8 °F 100% 28.23 in 3.0 mi WNW 42.6 mph 55.2 mph N/A   Overcast
12:50 PM 78.8 °F 78.8 °F 100% 28.28 in 3.0 mi WNW 43.7 mph 56.4 mph N/A   Overcast
12:55 PM 79.0 °F 79.0 °F 100% 28.28 in 3.0 mi WNW 47.2 mph 63.3 mph 0.00 in Rain Light Rain
12:59 PM 78.8 °F 78.8 °F 100% 28.29 in 2.5 mi WNW 55.2 mph 67.9 mph N/A Rain Light Rain
1:01 PM 78.8 °F 78.8 °F 100% 28.30 in 2.0 mi WNW 63.3 mph 80.6 mph N/A Rain Light Rain
1:02 PM 78.8 °F 78.8 °F 100% 28.30 in 1.8 mi WNW 59.8 mph 80.6 mph N/A Rain Light Rain
1:03 PM 78.8 °F 78.8 °F 100% 28.30 in 1.5 mi WNW 57.5 mph 80.6 mph N/A Rain Light Rain
1:05 PM 78.8 °F 78.8 °F 100% 28.30 in 1.2 mi WNW 61.0 mph 80.6 mph N/A Rain Light Rain
1:07 PM 77.0 °F 77.0 °F 100% 28.31 in 1.0 mi WNW 63.3 mph 95.5 mph N/A Rain Light Rain
1:09 PM 77.0 °F 77.0 °F 100% 28.30 in 1.0 mi WNW 70.2 mph 95.5 mph N/A Rain Light Rain
1:10 PM 77.0 °F 77.0 °F 100% 28.30 in 0.8 mi WNW 67.9 mph 95.5 mph N/A Rain Rain
1:14 PM 77.0 °F 77.0 °F 100% 28.33 in 0.8 mi WNW 74.8 mph 99.0 mph N/A Rain Rain
1:15 PM 77.0 °F 77.0 °F 100% 28.32 in 0.8 mi WNW 72.5 mph 99.0 mph N/A Rain Rain
1:17 PM 77.0 °F 77.0 °F 100% 28.32 in 0.8 mi WNW 80.6 mph 99.0 mph N/A Rain Rain
1:18 PM 77.0 °F 77.0 °F 100% 28.34 in 0.5 mi WNW 74.8 mph 99.0 mph N/A Fog , Rain Rain
1:21 PM 77.0 °F 77.0 °F 100% 28.35 in 0.5 mi WNW 73.6 mph 99.0 mph N/A Fog , Rain Heavy Rain
1:25 PM 77.0 °F 77.0 °F 100% 28.38 in 0.5 mi WNW 79.4 mph 99.0 mph N/A Fog , Rain Heavy Rain
1:28 PM 77.0 °F 77.0 °F 100% 28.38 in 0.5 mi WNW 85.2 mph 112.8 mph N/A Fog , Rain Heavy Rain
1:30 PM 77.0 °F 77.0 °F 100% 28.43 in 0.5 mi WNW 70.2 mph 112.8 mph N/A Fog , Rain Heavy Rain
1:31 PM 77.0 °F 77.0 °F 100% 28.41 in 0.2 mi WNW 71.3 mph 112.8 mph N/A Fog , Rain Heavy Rain
1:33 PM 77.0 °F 77.0 °F 100% 28.41 in 0.2 mi WNW 76.0 mph 112.8 mph N/A Fog , Rain Heavy Rain
1:35 PM 77.0 °F 77.0 °F 100% 28.43 in 0.2 mi WNW 73.6 mph 112.8 mph N/A Fog , Rain Heavy Rain
1:37 PM 77.0 °F 77.0 °F 100% 28.44 in 0.2 mi WNW 73.6 mph 112.8 mph N/A Fog , Rain Heavy Rain
1:39 PM 77.0 °F 77.0 °F 100% 28.45 in 0.2 mi WNW 70.2 mph 96.7 mph N/A Fog , Rain Heavy Rain
1:47 PM 77.0 °F 77.0 °F 100% 28.49 in 0.2 mi WNW 74.8 mph 115.1 mph N/A Fog , Rain Heavy Rain
1:55 PM 75.9 °F 75.9 °F 100% 28.53 in 0.2 mi WNW 82.9 mph 115.1 mph - Fog , Rain Heavy Rain
2:44 PM 77.0 °F 77.0 °F 100% - - WNW 59.8 mph 93.2 mph N/A Rain Heavy Rain
2:55 PM 75.7 °F 75.7 °F 100% - - North - - 2.39 in   Scattered Clouds
3:02 PM 75.2 °F 75.2 °F 100% - 0.5 mi West 62.1 mph 86.3 mph N/A Fog Fog
3:15 PM - - N/A% - 0.8 mi WNW 49.5 mph 81.7 mph N/A   Mist
3:17 PM - - N/A% - 0.5 mi WNW 59.8 mph 81.7 mph N/A Fog Fog
3:29 PM - - N/A% - 0.8 mi WNW 47.2 mph 79.4 mph N/A   Mist
3:44 PM - - N/A% - 1.0 mi WNW 48.3 mph 78.3 mph N/A   Mist
3:47 PM - - N/A% - 1.2 mi WNW 43.7 mph 72.5 mph N/A   Partly Cloudy
3:49 PM - - N/A% - 1.5 mi WNW 42.6 mph 64.4 mph N/A   Partly Cloudy
3:51 PM - - N/A% - 1.8 mi WNW 46.0 mph 64.4 mph N/A   Partly Cloudy
3:53 PM - - N/A% - 2.0 mi WNW 41.4 mph 64.4 mph N/A   Partly Cloudy
3:55 PM - - N/A% - 2.0 mi WNW 39.1 mph 64.4 mph N/A   Partly Cloudy
4:02 PM - - N/A% - 3.0 mi WNW 47.2 mph 63.3 mph N/A   Clear
4:55 PM - - N/A% - 4.0 mi West 35.7 mph 55.2 mph N/A   Haze
5:55 PM - - N/A% - 8.0 mi West 32.2 mph 48.3 mph N/A   Partly Cloudy
6:37 PM 77.0 °F 77.0 °F 100% - 7.0 mi West 32.2 mph 46.0 mph N/A   Scattered Clouds
6:45 PM 77.0 °F 77.0 °F 100% - 5.0 mi West 32.2 mph 46.0 mph N/A   Mostly Cloudy
6:55 PM - - N/A% - 7.0 mi West 27.6 mph 42.6 mph N/A   Mostly Cloudy
6:56 PM - - N/A% - 7.0 mi WNW 27.6 mph 42.6 mph N/A   Scattered Clouds
7:35 PM - - N/A% - 7.0 mi WNW 26.5 mph 43.7 mph N/A   Mostly Cloudy
7:39 PM - - N/A% - 6.0 mi WNW 25.3 mph 43.7 mph N/A   Haze
7:46 PM 75.2 °F 75.2 °F 100% - 6.0 mi WNW 27.6 mph 38.0 mph N/A   Mostly Cloudy
7:53 PM 75.2 °F 75.2 °F 100% - 5.0 mi WNW 26.5 mph 38.0 mph N/A Rain Light Rain
7:55 PM 75.2 °F 75.2 °F 100% - 4.0 mi WNW 24.2 mph 38.0 mph 6.80 in Rain Light Rain
7:58 PM 75.2 °F 75.2 °F 100% - 4.0 mi WNW 23.0 mph 38.0 mph N/A Rain Light Rain
8:01 PM 75.2 °F 75.2 °F 100% - 5.0 mi WNW 26.5 mph 38.0 mph N/A Rain Light Rain
8:02 PM 75.2 °F 75.2 °F 100% - 6.0 mi WNW 29.9 mph 38.0 mph N/A   Overcast
8:28 PM 75.2 °F 75.2 °F 100% - 10.0 mi WNW 26.5 mph 38.0 mph N/A   Mostly Cloudy
8:30 PM 75.2 °F 75.2 °F 100% - 10.0 mi WNW 31.1 mph 40.3 mph N/A   Mostly Cloudy
8:37 PM 77.0 °F 75.2 °F 94% - 9.0 mi WNW 28.8 mph 40.3 mph N/A   Mostly Cloudy
8:41 PM 77.0 °F 73.4 °F 89% - 9.0 mi WNW 20.7 mph 39.1 mph N/A   Mostly Cloudy
8:47 PM 77.0 °F 75.2 °F 94% - 10.0 mi WNW 28.8 mph 36.8 mph N/A   Mostly Cloudy
8:55 PM 75.9 °F 74.1 °F 94% - 10.0 mi WNW 18.4 mph 36.8 mph -   Mostly Cloudy
9:09 PM 77.0 °F 73.4 °F 89% - 10.0 mi WNW 24.2 mph 38.0 mph N/A   Mostly Cloudy
9:13 PM 77.0 °F 73.4 °F 89% - 10.0 mi WNW 23.0 mph 35.7 mph N/A Rain Light Rain
9:14 PM 77.0 °F 73.4 °F 89% - 10.0 mi WNW 21.9 mph 35.7 mph N/A Rain Light Rain
9:29 PM 75.2 °F 73.4 °F 94% - 9.0 mi WNW 25.3 mph 35.7 mph N/A Rain Light Rain
9:36 PM 75.2 °F 73.4 °F 94% - 7.0 mi WNW 17.3 mph 35.7 mph N/A Rain Light Rain
9:37 PM 75.2 °F 73.4 °F 94% - 7.0 mi NW 17.3 mph 35.7 mph N/A Rain Light Rain
9:38 PM 75.2 °F 73.4 °F 94% - 7.0 mi WNW 19.6 mph 35.7 mph N/A   Mostly Cloudy
9:49 PM 75.2 °F 73.4 °F 94% - 10.0 mi WNW 20.7 mph 36.8 mph N/A   Overcast
9:52 PM 75.2 °F 73.4 °F 94% - 10.0 mi WNW 23.0 mph 35.7 mph N/A Rain Light Rain
9:55 PM 75.9 °F 73.0 °F 91% - 10.0 mi WNW 19.6 mph 31.1 mph - Rain Light Rain
9:59 PM 75.2 °F 73.4 °F 94% - 10.0 mi WNW 18.4 mph 31.1 mph N/A Rain Light Rain
10:00 PM 75.2 °F 73.4 °F 94% - 10.0 mi WNW 18.4 mph 31.1 mph N/A   Overcast
10:01 PM 75.2 °F 73.4 °F 94% - 10.0 mi WNW 20.7 mph 31.1 mph N/A   Overcast
10:03 PM 75.2 °F 73.4 °F 94% - 10.0 mi WNW 20.7 mph 31.1 mph N/A   Overcast
10:20 PM 75.2 °F 71.6 °F 89% - 10.0 mi WNW 17.3 mph 33.4 mph N/A Rain Light Rain
10:31 PM 75.2 °F 71.6 °F 89% - 10.0 mi WNW 19.6 mph 34.5 mph N/A   Overcast
10:32 PM 75.2 °F 71.6 °F 89% - 10.0 mi WNW 18.4 mph 32.2 mph N/A   Overcast
10:36 PM 75.2 °F 69.8 °F 83% - 10.0 mi WNW 24.2 mph 32.2 mph N/A   Overcast
10:44 PM 75.2 °F 69.8 °F 83% - 10.0 mi WNW 20.7 mph 36.8 mph N/A   Overcast
10:55 PM 75.9 °F 69.4 °F 80% - 10.0 mi WNW 20.7 mph 40.3 mph 14.86 in   Overcast
10:57 PM 75.2 °F 69.8 °F 83% - 10.0 mi WNW 20.7 mph 40.3 mph N/A   Overcast
10:58 PM 75.2 °F 69.8 °F 83% - 10.0 mi WNW 19.6 mph 40.3 mph N/A   Overcast
11:00 PM 77.0 °F 69.8 °F 78% - 10.0 mi WNW 23.0 mph 40.3 mph N/A   Overcast
11:01 PM 77.0 °F 69.8 °F 78% - 10.0 mi WNW 23.0 mph 40.3 mph N/A   Overcast
11:05 PM 77.0 °F 68.0 °F 74% - 10.0 mi WNW 18.4 mph 34.5 mph N/A   Overcast
11:55 PM 75.6 °F 68.0 °F 77% - 10.0 mi NW 21.9 mph 28.8 mph N/A   Mostly Cloudy